{"data":{"norad_id":56828,"intl_designator":"2023-079F","name":"STARLINK-30152","alt_names":[],"object_type":"PAYLOAD","status":"ACTIVE","operator":null,"country":"US","launch_date":"2023-06-04","launch_site_code":"AFETR","launch_vehicle":null,"mission":null,"orbit_class":"UNKNOWN","rcs_meters":null,"size_class":null,"mass_kg":null,"dimensions":null,"purposes":["comms"],"wikipedia_slug":null,"has_3d_model":false,"image_url":null,"decayed_at":null,"tle_current":{"epoch":"2026-05-24T17:00:25.767648Z","epoch_age_seconds":97284,"freshness":"FRESH","line1":"1 56828U 23079F   26144.70863157  .00000223  00000+0  17650-4 0  9993","line2":"2 56828  43.0045  37.7994 0001523 277.0195  83.0484 15.27582257164516","mean_motion":15.27582257,"eccentricity":0.0001523,"inclination_deg":43.0045,"raan_deg":37.7994,"arg_perigee_deg":277.0195,"mean_anomaly_deg":83.0484,"bstar":1.765e-5,"rev_number":16451,"period_min":94.266609434702,"perigee_km":481.99738016488,"apogee_km":484.08729539117,"semimajor_km":6861.179337778,"source":"CELESTRAK","updated_at":"2026-05-25T13:38:18.162971Z"}}}